Ellensburg, WA
on Monday, February 4, 2013

Monday
Previous Day Next Day
Daily Summary
 ActualAverage (KYKM)Record (KYKM)
Temperature
Mean Temperature °F 34°F  
Max Temperature 52°F 43°F 63°F (2011)
Min Temperature 36°F 25°F -7°F (1985)
Degree Days
Heating Degree Days 21 31  
Month to date heating degree days 124  
Since 1 July heating degree days 3842  
Cooling Degree Days 0 0  
Month to date cooling degree days 0  
Year to date cooling degree days 0  
Moisture
Dew Point 33°F   
Average Humidity 68    
Maximum Humidity 83    
Minimum Humidity 50    
Precipitation
Precipitation 0.00 in 0.03 in 0.28 in (1950)
Month to date precipitation 0.11  
Year to date precipitation 1.25  
Snow
Snow 0.00 in 0.20 in 3.30 in (1950)
Month to date snowfall 0.5  
Year to date snowfall 5.8  
Since 1 July snowfall 18.8  
Snow Depth in   
Wind
Wind Speed 7 mph   
Max Wind Speed 16 mph   
Max Gust Speed mph   
Visibility 10 miles   
Events Rain   

Key: T is trace of precipitation, MM is missing value
Source: NWS Daily Summary
Time(PST)TemperatureDew PointHumidity Pressure Visibility Wind DirectionWind SpeedGust SpeedPrecipitationEvents Conditions
12:53 AM 41.0°F 30.9°F 67% 30.12 in 10.0 miles Calm Calm - N/A   Partly Cloudy
3:53 AM 42.1°F 32.0°F 67% 30.13 in 10.0 miles NW 9.2 mph - N/A   Overcast
4:53 AM 42.1°F 33.1°F 70% 30.13 in 10.0 miles NW 16.1 mph - N/A   Overcast
5:53 AM 39.9°F 32.0°F 73% 30.12 in 10.0 miles NNW 11.5 mph - N/A   Scattered Clouds
6:53 AM 36.0°F 28.9°F 76% 30.12 in 10.0 miles NW 6.9 mph - N/A   Clear
7:53 AM 37.9°F 30.9°F 76% 30.13 in 10.0 miles WNW 9.2 mph - N/A   Partly Cloudy
8:53 AM 43.0°F 33.1°F 68% 30.13 in 10.0 miles WNW 9.2 mph - N/A   Clear
9:53 AM 45.0°F 33.1°F 63% 30.13 in 10.0 miles West 9.2 mph - N/A   Clear
10:53 AM 46.9°F 33.1°F 59% 30.13 in 10.0 miles West 11.5 mph - N/A   Clear
11:53 AM 48.9°F 34.0°F 56% 30.11 in 10.0 miles WNW 10.4 mph - N/A   Clear
12:53 PM 50.0°F 34.0°F 54% 30.08 in 10.0 miles West 8.1 mph - N/A   Clear
1:53 PM 51.1°F 33.1°F 50% 30.05 in 10.0 miles West 4.6 mph - N/A   Clear
2:53 PM 52.0°F 34.0°F 50% 30.04 in 10.0 miles WSW 3.5 mph - N/A   Clear
4:53 PM 46.0°F 33.1°F 61% 30.01 in 10.0 miles WSW 3.5 mph - N/A   Clear
5:53 PM 39.9°F 30.9°F 70% 30.02 in 10.0 miles East 3.5 mph - N/A   Clear
6:53 PM 42.1°F 33.1°F 70% 30.02 in 10.0 miles NE 8.1 mph - N/A   Overcast
7:53 PM 43.0°F 33.1°F 68% 30.01 in 10.0 miles NE 5.8 mph - N/A   Overcast
8:53 PM 39.9°F 33.1°F 77% 29.97 in 10.0 miles WSW 4.6 mph - N/A   Overcast
9:53 PM 41.0°F 35.1°F 79% 29.96 in 10.0 miles North 8.1 mph - 0.00 in Rain Light Rain
10:53 PM 39.9°F 35.1°F 83% 29.94 in 10.0 miles West 3.5 mph - 0.00 in   Overcast
11:53 PM 39.0°F 34.0°F 82% 29.93 in 10.0 miles East 5.8 mph - N/A   Overcast
Moon Phase
Feb. 04 Feb. 10 Feb. 17 Feb. 25 Mar. 04
Sunrise:07:22 AM (PST) Moon Rise:02:09 AM (PST)2/4
Sunset:05:10 PM (PST) Moon Set:11:32 AM (PST)2/4

Copyright © 2014 The Weather Underground, Inc.